[[{"header":{"parameterUnit":"m.s-1","parameterCategory":1,"la1":30.2992,"la2":30.254,"lo1":-89.0895,"lo2":-89.0443,"dy":0.0025,"dx":0.0025,"nx":19,"ny":19,"refTime":"2026-04-07T09:00:00:Z","depth":0,"parameterNumber":2,"parameterNumberName":"U-component_of_WINDS"},"data":[0,0,0,-7.7047,-7.7052,-7.7221,-7.7222,-7.7512,-7.7515,0,0,0,0,0,0,0,0,0,0,0,-7.7042,-7.7046,-7.7047,-7.7052,-7.7221,-7.7222,-7.7511,-7.7515,0,0,0,0,0,0,0,0,0,0,0,-7.7041,-7.7045,-7.7049,-7.7053,-7.7221,-7.7222,-7.751,-7.7356,0,0,0,0,0,0,0,0,0,0,-7.7179,-7.722,-7.7044,-7.705,-7.7054,-7.7221,-7.7222,-7.7347,-7.7366,-7.7466,0,-7.7569,0,-7.7547,-7.7539,-7.754,0,0,0,-7.7018,-7.7205,-7.7209,-7.705,-7.7056,-7.7221,-7.7135,-7.7357,-7.7378,-7.7491,-7.7572,-7.7581,-7.7552,-7.7541,-7.7543,-7.8237,-7.8242,0,0,-7.7009,-7.7098,-7.7195,-7.7225,-7.7204,-7.713,-7.7141,-7.7368,-7.7463,-7.7573,-7.7587,-7.7557,-7.7544,-7.7546,-7.8232,-7.8238,0,0,0,-7.7005,-7.7093,-7.7089,-7.7215,-7.724,-7.7136,-7.7148,-7.7452,-7.7444,-7.7589,-7.756,-7.7546,-7.755,-7.8227,-7.8234,-7.8558,0,0,0,-7.6998,-7.709,-7.7087,-7.7143,-7.7237,-7.7349,-7.7229,-7.7428,-7.7451,-7.7559,-7.7546,-7.7554,-7.8221,-7.8231,-7.8538,-7.8697,0,0,0,-7.7016,-7.7091,-7.7132,-7.7148,-7.7224,-7.7343,-7.7346,-7.7431,-7.7435,-7.754,-7.7555,-7.8218,-7.8229,-7.852,-7.8667,-7.8904,0,0,0,-7.7061,-7.7419,-7.7138,-7.7527,-7.7223,-7.7542,-7.7344,-7.7577,-7.7706,-7.7548,-7.8222,-7.8234,-7.8514,-7.8648,-7.8885,-7.912,-7.9226,0,0,-7.7562,-7.7483,-7.7704,-7.7457,-7.7849,-7.7509,-7.7948,-7.7983,-7.7912,-7.8132,-7.8148,-7.8545,-7.8665,-7.89,-7.9791,-7.9876,0,0,0,-7.7893,-7.8053,-7.8137,-7.8264,-7.8298,-7.834,-7.8297,-7.8309,-7.8492,-7.8044,-7.8692,-7.8761,-7.8895,-7.9003,-7.9075,-7.9184,-7.8287,-7.8286,-7.8285,-7.8731,-7.8619,-7.8976,-7.8885,-7.9011,-7.8962,-7.9052,-7.906,-7.8912,-7.9067,-7.9132,-7.9687,-7.9816,-7.987,-7.9985,-7.9247,-7.9249,-7.925,-7.925,-7.9454,-7.9662,-7.9454,-7.9727,-7.9607,-7.9834,-7.98,-7.9687,-7.988,-7.9629,-7.9742,-7.9477,-7.9967,-8.0061,-7.9274,-7.927,-7.9267,-7.9265,-7.9263,-7.999,-8.0069,-8.0077,-8.0246,-8.0389,-8.0283,-8.0477,-8.0361,-8.0252,-8.0364,-8.0418,-8.0413,-8.0391,-8.0398,-8.04,-8.0402,-8.0404,-8.0405,-8.0406,-8.0542,-8.054,-8.0718,-8.0783,-8.0846,-8.0916,-8.0869,-8.0928,-8.0964,-8.0864,-8.0864,-8.07,-8.0036,-7.9871,-8.0436,-8.0431,-8.0427,-8.0424,-8.0422,-8.1316,-8.1121,-8.1397,-8.1462,-8.1525,-8.1673,-8.1521,-8.1652,-8.1684,-8.1784,-8.1595,-8.1123,-8.1033,-8.0975,-8.0837,-8.1619,-8.1619,-8.1619,-8.1619,-8.1767,-8.171,-8.1963,-8.2073,-8.2167,-8.2056,-8.2369,-8.2335,-8.227,-8.2282,-8.2152,-8.196,-8.1905,-8.1848,-8.177,-8.164,-8.2608,-8.2609,-8.261,-8.2235,-8.2181,-8.2471,-8.2402,-8.2443,-8.248,-8.277,-8.2904,-8.2789,-8.2648,-8.2289,-8.2247,-8.1935,-8.184,-8.1692,-8.1575,-8.1333,0,0]},{"header":{"parameterUnit":"m.s-1","parameterCategory":1,"la1":30.2992,"la2":30.254,"lo1":-89.0895,"lo2":-89.0443,"dy":0.0025,"dx":0.0025,"nx":19,"ny":19,"refTime":"2026-04-07T09:00:00:Z","depth":0,"parameterNumber":3,"parameterNumberName":"V-component_of_WINDS"},"data":[0,0,0,-0.7767,-0.7768,-0.7821,-0.7822,-0.7867,-0.7867,0,0,0,0,0,0,0,0,0,0,0,-0.7737,-0.7737,-0.7767,-0.7768,-0.7821,-0.7822,-0.7867,-0.7867,0,0,0,0,0,0,0,0,0,0,0,-0.7737,-0.7737,-0.7737,-0.7768,-0.7821,-0.7822,-0.7867,-0.7834,0,0,0,0,0,0,0,0,0,0,-0.7786,-0.7746,-0.7737,-0.7737,-0.7768,-0.7821,-0.7822,-0.7833,-0.7836,-0.7833,0,-0.7826,0,-0.7847,-0.7869,-0.7869,0,0,0,-0.7778,-0.7744,-0.777,-0.7737,-0.7768,-0.7821,-0.78,-0.7835,-0.7839,-0.7837,-0.7827,-0.7829,-0.7848,-0.7869,-0.7869,-0.7813,-0.7812,0,0,-0.7775,-0.774,-0.7767,-0.7772,-0.7763,-0.7798,-0.7801,-0.7838,-0.7825,-0.7827,-0.7831,-0.7849,-0.7869,-0.7869,-0.7814,-0.7813,0,0,0,-0.7759,-0.7737,-0.7764,-0.7769,-0.7781,-0.7799,-0.7803,-0.7823,-0.7835,-0.7832,-0.7849,-0.7869,-0.7869,-0.7814,-0.7813,-0.7741,0,0,0,-0.7758,-0.7729,-0.7762,-0.7741,-0.778,-0.7803,-0.7788,-0.7832,-0.7838,-0.7849,-0.7869,-0.787,-0.7815,-0.7814,-0.7745,-0.7713,0,0,0,-0.7738,-0.7726,-0.773,-0.7739,-0.7761,-0.7803,-0.7817,-0.7834,-0.7848,-0.7869,-0.787,-0.7816,-0.7814,-0.7749,-0.7719,-0.7686,0,0,0,-0.7708,-0.7667,-0.7728,-0.7689,-0.776,-0.7759,-0.7817,-0.7818,-0.7828,-0.7869,-0.7815,-0.7813,-0.775,-0.7722,-0.7689,-0.765,-0.7632,0,0,-0.7637,-0.7657,-0.7637,-0.7693,-0.7672,-0.7754,-0.7722,-0.7764,-0.7799,-0.7806,-0.7805,-0.7744,-0.7719,-0.7687,-0.7542,-0.7527,0,0,0,-0.7603,-0.7587,-0.7589,-0.7596,-0.7627,-0.765,-0.77,-0.7716,-0.7723,-0.7795,-0.7726,-0.7712,-0.7694,-0.7677,-0.7664,-0.765,-0.7805,-0.7805,-0.7805,-0.7452,-0.7496,-0.7465,-0.7515,-0.7521,-0.7573,-0.7581,-0.761,-0.7656,-0.7638,-0.764,-0.7547,-0.7525,-0.7516,-0.7501,-0.7625,-0.7625,-0.7625,-0.7624,-0.735,-0.7334,-0.7393,-0.7383,-0.743,-0.7423,-0.747,-0.7501,-0.75,-0.755,-0.7537,-0.7585,-0.7498,-0.7487,-0.762,-0.762,-0.7621,-0.7621,-0.7622,-0.7254,-0.7254,-0.7273,-0.7285,-0.729,-0.7343,-0.7338,-0.7383,-0.7424,-0.7411,-0.7416,-0.7417,-0.7422,-0.7411,-0.741,-0.741,-0.741,-0.7409,-0.7409,-0.7146,-0.717,-0.716,-0.7187,-0.7196,-0.7213,-0.7263,-0.7273,-0.7294,-0.7327,-0.7327,-0.7371,-0.7482,-0.7507,-0.7404,-0.7405,-0.7406,-0.7406,-0.7407,-0.7023,-0.7057,-0.7042,-0.705,-0.7084,-0.7084,-0.7141,-0.7156,-0.717,-0.7166,-0.7213,-0.7289,-0.7313,-0.7323,-0.7344,-0.7206,-0.7206,-0.7206,-0.7206,-0.694,-0.6956,-0.6949,-0.6959,-0.6974,-0.7023,-0.7002,-0.7039,-0.7084,-0.7095,-0.7122,-0.7154,-0.7163,-0.7182,-0.7196,-0.7216,-0.7048,-0.7047,-0.7047,-0.6865,-0.6884,-0.6858,-0.6902,-0.6931,-0.6955,-0.6936,-0.6944,-0.7002,-0.7042,-0.7104,-0.7111,-0.7164,-0.7179,-0.7219,-0.7239,-0.7277,0,0]}]]